STARLINK-31962, 59936

Orbit data source: Space-Track

STARLINK-31962, 59936 is a payload satellite owned by SpaceX/Seattle (US) in LEO that was launched on Sat, 01 Jun 2024 UTC via an FALCON 9 launch vehicle from the Air Force Eastern Test Range (AFETR). Payload-class satellites include a variety of spacecraft equipped with specific instruments for various scientific and technological missions. These include communications satellites like Starlink; space stations such as the ISS; scientific satellites like the Hubble; Earth observation satellites from companies like Planet Labs, Umbra, and HawkEye 360; GPS; miniature CubeSats for education and research; and military/defense satellites.

Loading next visibility...
Identifier
59936, 2024-106Q
Orbit
LEO
Country
Flag of USUS
Related business
Manufacturer
SpaceX/Seattle
Mission
Operational spacecraft
Bus & Motor
STARLINK V2M, Unknown motor
Mass
730 kg wet, ~700 kg dry
Launch date (UTC)
2024-06-01 (1 year ago)
Launch vehicle
FALCON 9
Launch site
Air Force Eastern Test Range (AFETR)
Object type
Payload
Rocket body
Debris
Shape & HBR
Unknown
Radar Cross Section
Large (>1 m²)

Expand to show TLE details & history
Last TLE update: 12 hours ago

TLE from 12 hours ago
0 STARLINK-31962
1 59936U 24106Q   25258.41713904 -.00003209  00000-0 -10707-3 0  9990
2 59936  43.0021 242.6706 0000997 259.6744 100.3996 15.27600781 73716
Epoch: 2025-09-15T10:00Z
TLE epoch observation values (Epoch: 2025-09-15T10:00:40.813Z)
Latitude
0.00005°
Longitude
97.8785°
Altitude
482.886 km
Speed
7.626 km/s
True Right ascension
16h 10m 40s
True Declination
0° 00' 00"
Sunlit
Object was in daylight at epoch
Visualization orbit readout
Latitude
Unknown
Longitude
Unknown
Altitude
Unknown
Speed
Unknown
Apparent Right ascension
Unknown
Apparent Declination
Unknown
Sunlit
N/A
Visualization observer readout
Local Sidereal Time
14:43:52
Azimuth
Unknown
Elevation
Unknown
Doppler factor
Unknown
Orbital elements
Apogee altitude
485.616 km
Perigee altitude
484.247 km
Semi-major axis
6,863.069 km
Eccentricity
0.0001
Inclination
43.0021°
RAAN
242.6706°
Arg. of periapsis
259.6744°
True anomaly
100.41084°
Mean anomaly
100.3996°
Eccentric anomaly
100.40522°
Mean motion
3.81738 °/min
Orbital period
94.31 mins
BSTAR
-0.00010707
Loading maneuver chart data...
Computing Atmospheric mass density...
Loading historical data...
Loading historical data...
Loading historical data...
Loading historical data...
Loading historical data...
Loading historical data...
Loading historical data...

Documentation

Showing up to 5 results
|